This is the latest recevied weather packets stored in our database for station/object LY3FF-10. If no packets are shown the sender has not sent any weather packets the latest 10 day(s).
| Time | Temp. | Humidity | Pressure | Rain* | Wind** | Luminosity | Snow |
|---|---|---|---|---|---|---|---|
| 1787677890 | 17.78° C | 62% | 999.5 hPa | - | - | - | - |
| 1787677130 | 17.78° C | 60% | 999.5 hPa | - | - | - | - |
| 1787676330 | 19.44° C | 59% | 999.5 hPa | - | - | - | - |
| 1787675510 | 20° C | 58% | 999.4 hPa | - | - | - | - |
| 1787674704 | 20.56° C | 54% | 999.4 hPa | - | - | - | - |
| 1787673984 | 20.56° C | 54% | 999.3 hPa | - | - | - | - |
| 1787673264 | 20° C | 54% | 999.3 hPa | - | - | - | - |
| 1787672475 | 20.56° C | 53% | 999.1 hPa | - | - | - | - |
| 1787671644 | 21.11° C | 51% | 999.1 hPa | - | - | - | - |
| 1787670794 | 22.22° C | 52% | 999 hPa | - | - | - | - |
| 1787670010 | 21.67° C | 54% | 999 hPa | - | - | - | - |
| 1787669195 | 21.11° C | 52% | 999 hPa | - | - | - | - |
| 1787668455 | 26.67° C | 55% | 999.1 hPa | - | - | - | - |
| 1787667655 | 20° C | 57% | 999 hPa | - | - | - | - |
| 1787666870 | 27.22° C | 60% | 999.1 hPa | - | - | - | - |
| 1787666150 | 22.22° C | 61% | 999.1 hPa | - | - | - | - |
| 1787665275 | 22.78° C | 60% | 999.1 hPa | - | - | - | - |
| 1787664415 | 20° C | 59% | 998.9 hPa | - | - | - | - |
| 1787663685 | 26.11° C | 60% | 998.9 hPa | - | - | - | - |
| 1787662915 | 21.67° C | 59% | 998.9 hPa | - | - | - | - |
| 1787662095 | 21.67° C | 58% | 998.8 hPa | - | - | - | - |
| 1787661270 | 20.56° C | 59% | 999.1 hPa | - | - | - | - |
| 1787660444 | 28.33° C | 58% | 999 hPa | - | - | - | - |
| 1787659604 | 32.78° C | 62% | 999 hPa | - | - | - | - |
| 1787658760 | 18.89° C | 62% | 999 hPa | - | - | - | - |
* Rain since midnight (hover to see other rain measurements)
** Current wind speed in m/s (hover to see current wind gust speed)